Lexington Weather

Lexington, Massachusetts, USA

25°F
1/21/2021 9:53am 
  • Lexington Conditions: Clear
  • Temperature: 24.6°F / -4.1°CWarmer 2.3°F than last hour.
  • Dew Point: 13.8°FIncreased 2.1°Fsince last hour.
  • Relative Humidity: 63
  • Wind: Calm, 10-min avg: Calm, gust: 3 mph
  • Barometer: 29.78 in Steady
  • Visibility: 10 miles
  • Snow Today: Trace
  •   

Regional Weather Roundup
for Boston / Norton, MA

        
000
ASUS41 KBOX 151204
RWRBOX

REGIONAL WEATHER ROUNDUP
NATIONAL WEATHER SERVICE BOSTON/NORTON MA
700 AM EST FRI JAN 15 2021

NOTE:  "FAIR" INDICATES FEW OR NO CLOUDS BELOW 12,000 FEET WITH NO 
SIGNIFICANT WEATHER AND/OR OBSTRUCTIONS TO VISIBILITY.

MAZALL-151300-
EASTERN MASSACHUSETTS
  
CITY           SKY/WX    TMP DP  RH WIND       PRES   REMARKS
BOSTON         MOCLDY    34  30  85 N6        30.04R WCI  29          
6HR MIN TEMP:  33; 6HR MAX TEMP:  34;                                

BEVERLY        PTCLDY    29  27  92 N5        30.02R FOG     WCI  24  
LAWRENCE       CLOUDY    32  31  96 CALM      30.05R FOG              
BEDFORD        CLOUDY    34  32  92 CALM      30.03R FOG              
BLUE HILL        N/A     32  31  96 N8        29.99R WCI  25          
NORWOOD        CLOUDY    35  32  88 CALM      30.03R FOG              
MARSHFIELD     NOT AVBL                                               
PLYMOUTH       CLEAR     34  32  92 NW3       30.01R FOG              
TAUNTON        CLOUDY    38  34  85 CALM      30.01R FOG              
NEW BEDFORD    CLOUDY    38  36  92 N5        30.00S FOG              
$$

MAZALL-151300-
CAPE COD AND THE ISLANDS
  
CITY           SKY/WX    TMP DP  RH WIND       PRES   REMARKS
FALMOUTH       PTCLDY    37  34  87 NE5       30.00R                  
HYANNIS        CLEAR     33  30  88 CALM      29.99R                  
CHATHAM        CLEAR     34  30  85 CALM      30.01R                  
PROVINCETOWN   CLEAR     38  32  79 NE7       30.02R                  
NANTUCKET      PTCLDY    35  33  92 NE6       29.99R WCI  30          
MARTHAS VNYRD  CLOUDY    39  36  89 N8        29.99R                  
$$
 
MAZALL-151300-
CENTRAL AND WESTERN MASSACHUSETTS
  
CITY           SKY/WX    TMP DP  RH WIND       PRES   REMARKS
WORCESTER      CLOUDY    32  30  92 NE5       29.98R FOG     WCI  27  
6HR MIN TEMP:  32; 6HR MAX TEMP:  32;                                

FITCHBURG      CLOUDY    33  33 100 CALM      30.03R FOG              
ORANGE         CLOUDY    30  29  96 CALM      30.02S FOG              
SPRINGFIELD    CLOUDY    33  33  99 N5        30.01R WCI  28          
WESTFIELD      CLOUDY    32  32 100 NE5       30.02R FOG     WCI  27  
NORTH ADAMS    FOG       29  27  92 CALM      30.00R VSB 1/2          
PITTSFIELD     FOG       27  26  96 CALM      29.96R VSB 1/4          
$$
 
RIZALL-151300-
RHODE ISLAND
  
CITY           SKY/WX    TMP DP  RH WIND       PRES   REMARKS
PROVIDENCE     CLOUDY    37  34  89 N8        30.01S FOG     WCI  31  
6HR MIN TEMP:  36; 6HR MAX TEMP:  38;                                

NEWPORT        CLOUDY    37  35  92 N6        29.99S FOG              
BLOCK ISLAND   CLOUDY    38  35  89 NE7       30.00R                  
SMITHFIELD     CLOUDY   N/A N/A N/A N7        30.01R FOG              
WESTERLY       CLOUDY    35  33  92 N3        30.01R                  
$$
 
CTZALL-151300-
CONNECTICUT
  
CITY           SKY/WX    TMP DP  RH WIND       PRES   REMARKS
BRADLEY INTL   CLOUDY    33  31  92 CALM      30.02R FOG              
6HR MIN TEMP:  29; 6HR MAX TEMP:  34;                                

HARTFORD       CLOUDY    35  32  88 CALM      30.03R FOG              
BRIDGEPORT     CLOUDY    35  33  92 NE10      29.99S FOG     WCI  27  
DANBURY        CLOUDY    32  31  96 E6        29.98S FOG     WCI  26  
GROTON         CLOUDY    37  33  85 N6        30.00S                  
NEW HAVEN      CLOUDY    36  34  92 NE7       30.00R FOG     WCI  30  
CHESTER        CLOUDY    34  34 100 NE7       30.00R FOG     WCI  28  
MERIDEN        CLOUDY    34  31  88 N3        30.02R FOG              
WILLIMANTIC    CLOUDY    35  33  92 CALM      30.01R                  
OXFORD         FOG       32  32 100 VRB7      29.98R VSB 3/4 WCI  26  
$$

MEZ002-015-021-024-NHZ003-005-008-011-012-014-VTZ005-008-151300-
NORTHERN NEW ENGLAND
  
CITY           SKY/WX    TMP DP  RH WIND       PRES   REMARKS
PORTLAND ME    MOCLDY    31  25  78 N3        30.04R                  
6HR MIN TEMP:  30; 6HR MAX TEMP:  33;                                

BANGOR ME      CLOUDY    30  26  85 N5        30.04R WCI  25          
CONCORD NH     CLOUDY    27  25  92 CALM      30.03R                  
MANCHESTER NH  CLOUDY    32  28  85 CALM      30.02R                  
NASHUA NH      CLOUDY    33  33 100 NW5       30.04R WCI  29          
PORTSMOUTH NH  PTCLDY    28  24  83 N5        30.01R WCI  23          
JAFFREY NH     CLOUDY    25  22  88 CALM      30.00R FOG              
KEENE NH       FOG       27  26  96 CALM      30.04R VSB 1/4          
BURLINGTON VT  FOG       24  20  84 CALM      30.01R VSB 3/4          
MT. WASHINGTON NOT AVBL                                               
$$

NYZ052-076-151300-
EASTERN NEW YORK
  
CITY           SKY/WX    TMP DP  RH WIND       PRES   REMARKS
ALBANY         PTCLDY    22  22 100 CALM      30.00R FOG              
6HR MIN TEMP:  20; 6HR MAX TEMP:  30;                                

NEW YORK CITY  CLOUDY    39  34  82 E12       29.96S WCI  32          
6HR MIN TEMP:  38; 6HR MAX TEMP:  41;                                

$$
 
ANZALL-151300-
MARINE OBSERVATIONS
  
STATION/POSITION TIME  TEMP    WIND        PRES    VSBY  WAVE
                       AIR SEA DIR/SP/G                  HT/PER
                 (UTC) (F)     (DEG/KT/KT) (MB)    (MI)  (FT/S)
BOSTON BUOY      1140   40 43   10/ 10/ 12 1017.2R
BUZZARDS BAY     1100           30/  8/  8 1016.5R
NANTUCKET SOUND  1140      41   20/  8/ 10   N/A
MASS BAY-STELLWA 1104   40      20/ 12/ 14 1015.1R  1 7/8  2/ 8
ISLE OF SHOALS   1100   36      20/ 14/ 15 1015.8R
S OF BLOCK IS    1126      47                N/A           2/ 3
$$

......................KEY.........................
  SKY/WX - SKY CONDITION/PRESENT WEATHER
  TMP    - TEMPERATURE IN FAHRENHEIT
  DWPT   - DEWPOINT IN FAHRENHEIT
  RH     - RELATIVE HUMIDITY IN PERCENT
  WIND   - DIRECTION AND SPEED IN MPH
  PRES   - MEAN SEA LEVEL PRESSURE IN INCHES OF HG
  WCI    - WIND CHILL INDEX
  VSB    - VISIBILITY IN MILES
  HX     - HEAT INDEX
  TC     - TEMPERATURE IN CELSIUS
  VRB    - VARIABLE WIND DIRECTION
  N/A    - NOT AVAILABLE
  
      

Other recent Regional Weather Roundups

Thu Jan 21, 9:04am

Thu Jan 21, 7:04am

Thu Jan 21, 6:04am

Thu Jan 21, 5:04am

Thu Jan 21, 4:04am

Thu Jan 21, 3:04am

Thu Jan 21, 2:04am

Thu Jan 21, 1:04am

Thu Jan 21, 12:04am

Wed Jan 20, 11:04pm

Wed Jan 20, 10:05pm

Wed Jan 20, 9:04pm

Wed Jan 20, 8:04pm

Wed Jan 20, 7:04pm

Wed Jan 20, 6:05pm

Wed Jan 20, 5:05pm

Wed Jan 20, 1:04pm

Wed Jan 20, 12:04pm

Wed Jan 20, 11:04am

Wed Jan 20, 10:04am

Wed Jan 20, 9:05am

Wed Jan 20, 8:04am

Wed Jan 20, 7:04am

Wed Jan 20, 6:04am

Wed Jan 20, 5:04am

Wed Jan 20, 4:04am

Wed Jan 20, 3:05am

Wed Jan 20, 2:04am

Wed Jan 20, 1:04am

Wed Jan 20, 12:04am

Tue Jan 19, 11:04pm

Tue Jan 19, 10:04pm

Tue Jan 19, 9:04pm

Tue Jan 19, 8:04pm

Tue Jan 19, 7:04pm

Tue Jan 19, 6:05pm

Tue Jan 19, 5:04pm

Tue Jan 19, 4:05pm

Tue Jan 19, 3:04pm

Tue Jan 19, 2:04pm

Tue Jan 19, 1:04pm

Tue Jan 19, 12:05pm

Tue Jan 19, 11:04am

Tue Jan 19, 10:05am

Tue Jan 19, 9:04am

Tue Jan 19, 8:04am

Tue Jan 19, 7:04am

Tue Jan 19, 6:04am

Tue Jan 19, 5:04am

Tue Jan 19, 4:04am

Tue Jan 19, 3:04am

Tue Jan 19, 2:04am

Tue Jan 19, 1:04am

Tue Jan 19, 12:04am

Mon Jan 18, 11:04pm

Mon Jan 18, 10:04pm

Mon Jan 18, 9:04pm

Mon Jan 18, 8:05pm

Mon Jan 18, 7:04pm

Mon Jan 18, 6:05pm

Mon Jan 18, 5:04pm

Mon Jan 18, 4:04pm

Mon Jan 18, 3:04pm

Mon Jan 18, 2:04pm

Mon Jan 18, 1:04pm

Mon Jan 18, 12:04pm

Mon Jan 18, 11:04am

Mon Jan 18, 10:04am

Mon Jan 18, 9:04am

Mon Jan 18, 8:04am

Mon Jan 18, 7:04am

Mon Jan 18, 6:04am

Mon Jan 18, 5:04am

Mon Jan 18, 4:04am

Mon Jan 18, 3:04am

Mon Jan 18, 2:04am

Mon Jan 18, 1:04am

Mon Jan 18, 12:04am

Sun Jan 17, 11:04pm

Sun Jan 17, 10:04pm

Sun Jan 17, 9:04pm

Sun Jan 17, 8:04pm

Sun Jan 17, 7:04pm

Sun Jan 17, 6:04pm

Sun Jan 17, 5:04pm

Sun Jan 17, 4:05pm

Sun Jan 17, 3:04pm

Sun Jan 17, 2:04pm

Sun Jan 17, 1:04pm

Sun Jan 17, 12:04pm

Sun Jan 17, 11:04am

Sun Jan 17, 10:04am

Sun Jan 17, 9:04am

Sun Jan 17, 8:04am

Sun Jan 17, 7:04am

Sun Jan 17, 6:04am

Sun Jan 17, 5:04am

Sun Jan 17, 4:04am

Sun Jan 17, 3:04am

Sun Jan 17, 2:04am

Sun Jan 17, 1:04am

Sun Jan 17, 12:04am

Sat Jan 16, 11:05pm

Sat Jan 16, 10:04pm

Sat Jan 16, 9:04pm

Sat Jan 16, 8:05pm

Sat Jan 16, 7:04pm

Sat Jan 16, 6:04pm

Sat Jan 16, 5:05pm

Sat Jan 16, 4:05pm

Sat Jan 16, 3:05pm

Sat Jan 16, 2:04pm

Sat Jan 16, 1:04pm

Sat Jan 16, 12:04pm

Sat Jan 16, 11:04am

Sat Jan 16, 10:05am

Sat Jan 16, 9:04am

Sat Jan 16, 8:04am

Sat Jan 16, 7:04am

Sat Jan 16, 6:04am

Sat Jan 16, 5:04am

Sat Jan 16, 4:04am

Sat Jan 16, 3:05am

Sat Jan 16, 2:04am

Sat Jan 16, 1:04am

Sat Jan 16, 12:05am

Fri Jan 15, 11:05pm

Fri Jan 15, 10:04pm

Fri Jan 15, 9:04pm

Fri Jan 15, 8:04pm

Fri Jan 15, 7:05pm

Fri Jan 15, 6:05pm

Fri Jan 15, 5:05pm

Fri Jan 15, 4:05pm

Fri Jan 15, 3:04pm

Fri Jan 15, 2:05pm

Fri Jan 15, 1:04pm

Fri Jan 15, 12:05pm

Fri Jan 15, 11:04am

Fri Jan 15, 10:04am

Fri Jan 15, 9:05am

Fri Jan 15, 8:04am

Fri Jan 15, 6:04am

Fri Jan 15, 5:05am

Fri Jan 15, 4:04am

Fri Jan 15, 3:04am

Fri Jan 15, 2:04am

Fri Jan 15, 1:04am

Fri Jan 15, 12:05am

Thu Jan 14, 11:04pm

Thu Jan 14, 10:04pm

Thu Jan 14, 9:04pm

Thu Jan 14, 8:05pm

Thu Jan 14, 7:04pm

Thu Jan 14, 6:04pm

Thu Jan 14, 5:04pm

Thu Jan 14, 4:05pm

Thu Jan 14, 3:04pm

Thu Jan 14, 2:04pm

Thu Jan 14, 1:04pm

Thu Jan 14, 12:05pm

Thu Jan 14, 11:05am

Thu Jan 14, 10:04am

Thu Jan 14, 9:04am

Thu Jan 14, 8:04am

Thu Jan 14, 7:04am

Thu Jan 14, 6:04am

Thu Jan 14, 5:04am

Thu Jan 14, 4:04am

Thu Jan 14, 3:04am

Thu Jan 14, 2:04am

Thu Jan 14, 1:04am

Thu Jan 14, 12:04am

Wed Jan 13, 11:04pm

Wed Jan 13, 10:04pm

Wed Jan 13, 9:04pm

Wed Jan 13, 8:05pm

Wed Jan 13, 7:04pm

Wed Jan 13, 6:04pm

Wed Jan 13, 5:04pm

Wed Jan 13, 4:04pm

Wed Jan 13, 3:05pm

Wed Jan 13, 2:04pm

Wed Jan 13, 1:04pm

Wed Jan 13, 12:04pm

Wed Jan 13, 11:04am

Wed Jan 13, 10:04am

Wed Jan 13, 9:05am

Wed Jan 13, 8:04am

Wed Jan 13, 7:04am

Wed Jan 13, 6:04am

Wed Jan 13, 5:04am

Wed Jan 13, 4:04am

Wed Jan 13, 3:04am

Wed Jan 13, 2:04am

Wed Jan 13, 1:04am

Wed Jan 13, 12:05am

Tue Jan 12, 11:04pm

Tue Jan 12, 10:04pm

Tue Jan 12, 9:04pm

Tue Jan 12, 8:05pm

Tue Jan 12, 7:04pm

Meta data:

ID: 1d518ad6-e772-4b49-87eb-7adf9ba96ceb
Link: https://api.weather.gov/products/1d518ad6-e772-4b49-87eb-7adf9ba96ceb